Location: City of Moscow
(46.7306°N, 116.9989°W)
Time: 03:23:09
(UTC+00:00)

NOAA 12 - Pass Details

Date: 11 December 2025
Orbit: 792 x 813 km, 98.6° (Epoch: 13 January)

Event Time Altitude Azimuth Distance (km) Brightness Sun altitude
Rises 13:09:35 0° 13° (NNE) 3,334 7.3 -21.9°
Reaches altitude 10° 13:11:56 10° 12° (NNE) 2,396 6.6 -21.5°
Maximum altitude 13:17:14 80° 286° (WNW) 819 4.0 -20.6°
Drops below altitude 10° 13:22:28 10° 200° (SSW) 2,365 6.5 -19.7°
Sets 13:24:47 0° 200° (SSW) 3,288 7.2 -19.3°
